Weather History for KC29 - January, 2014

Change the Weather History Date:

Monday, January 27, 2014

  Actual Average (KMSN) Record (KMSN)
Temperature  
Mean Temperature -2 °F 19 °F  
Max Temperature 3 °F 27 °F 55 °F (2002)
Min Temperature -9 °F 11 °F -19 °F (1915)
Degree Days  
Heating Degree Days 68 46  
Month to date heating degree days 1251  
Since 1 July heating degree days 4130  
Cooling Degree Days 0 0  
Month to date cooling degree days 0  
Year to date cooling degree days 0  
Moisture  
Dew Point -18 °F    
Average Humidity 53    
Maximum Humidity 71    
Minimum Humidity 39    
Precipitation  
Precipitation 0.00 in 0.04 in 1.14 in (1944)
Month to date precipitation 1.07  
Year to date precipitation 1.07  
Snow  
Snow 0.00 in 0.40 in 5.40 in (1949)
Month to date snowfall 11.2  
Since 1 July snowfall 28.8  
Snow Depth -    
Sea Level Pressure  
Sea Level Pressure 30.20 in    
Wind  
Wind Speed 15 mph (WNW)    
Max Wind Speed 21 mph    
Max Gust Speed 28 mph    
Visibility 9 miles    
Events      
T = Trace of Precipitation, MM = Missing Value Source: NWS Daily Summary

Daily Weather History Graph

Daily Weather History Graph

Search for Another Location

Airport or City:

Trip Planner

Search our weather history database for the weather conditions in past years. The results will help you decide how hot, cold, wet, or windy it might be!

Date:

Astronomy

Jan. 27, 2014 Rise Set
Actual Time 7:18 AM CST 5:03 PM CST
Civil Twilight 6:47 AM CST 5:34 PM CST
Nautical Twilight 6:13 AM CST 6:08 PM CST
Astronomical Twilight 5:39 AM CST 6:42 PM CST
Moon 4:00 AM CST (1/27) 1:48 PM CST (1/27)
Length of Visible Light 10h 46m
Length of Day
9h 45m
Waning Crescent, 14% of the Moon is Illuminated
Jan 27
Waning Crescent
Jan 30
New
Feb 6
First Quarter
Feb 14
Full
Feb 22
Last Quarter

Hourly Weather History & Observations

Time (CST) Temp. Windchill Dew Point Humidity Pressure Visibility Wind Dir Wind Speed Gust Speed Precip Events Conditions
12:15 AM 3.0 °F -18.3 °F -7.8 °F 61% 29.86 in 10.0 mi WNW 20.7 mph 27.6 mph N/A   Clear
12:35 AM 2.7 °F -16.6 °F -8.0 °F 61% 29.88 in 10.0 mi WNW 16.1 mph 23.0 mph N/A   Scattered Clouds
12:55 AM 2.3 °F -15.7 °F -8.5 °F 61% 29.89 in 10.0 mi WNW 13.8 mph - N/A   Scattered Clouds
1:15 AM 2.1 °F -17.3 °F -8.9 °F 60% 29.91 in 10.0 mi West 16.1 mph 20.7 mph N/A   Mostly Cloudy
1:35 AM 1.8 °F -17.1 °F -9.4 °F 60% 29.92 in 10.0 mi WNW 15.0 mph - N/A   Mostly Cloudy
1:55 AM 1.4 °F -18.8 °F -9.4 °F 61% 29.94 in 10.0 mi WNW 17.3 mph 23.0 mph N/A   Mostly Cloudy
2:15 AM 1.4 °F -18.8 °F -8.9 °F 62% 29.95 in 10.0 mi West 17.3 mph 21.9 mph N/A   Overcast
2:35 AM 1.2 °F -17.8 °F -9.4 °F 61% 29.97 in 10.0 mi WNW 15.0 mph 21.9 mph N/A   Overcast
2:55 AM 0.9 °F -16.8 °F -9.6 °F 62% 29.98 in 10.0 mi WNW 12.7 mph - N/A   Overcast
3:15 AM 0.5 °F -19.4 °F -12.3 °F 55% 29.99 in 10.0 mi WNW 16.1 mph 24.2 mph N/A   Mostly Cloudy
3:35 AM -0.4 °F -19.2 °F -13.0 °F 55% 30.01 in 10.0 mi WNW 13.8 mph - N/A   Mostly Cloudy
3:55 AM -0.6 °F -17.8 °F -13.9 °F 53% 30.02 in 10.0 mi WNW 11.5 mph - N/A   Scattered Clouds
4:15 AM -1.3 °F -21.0 °F -8.7 °F 71% 30.03 in 3.0 mi WNW 15.0 mph - N/A   Mostly Cloudy
4:35 AM -1.5 °F -19.0 °F -10.3 °F 66% 30.05 in 7.0 mi West 11.5 mph 20.7 mph N/A   Overcast
4:55 AM -2.4 °F -20.1 °F -11.2 °F 66% 30.06 in 10.0 mi WNW 11.5 mph 17.3 mph N/A   Mostly Cloudy
5:15 AM -3.1 °F -22.6 °F -11.2 °F 68% 30.06 in 7.0 mi West 13.8 mph 19.6 mph N/A   Mostly Cloudy
5:35 AM -3.3 °F -24.9 °F -11.9 °F 67% 30.07 in 5.0 mi West 17.3 mph 21.9 mph N/A   Overcast
5:55 AM -4.2 °F -25.4 °F -13.9 °F 63% 30.08 in 7.0 mi WNW 16.1 mph 24.2 mph N/A   Overcast
6:15 AM -4.9 °F -26.3 °F -15.5 °F 60% 30.09 in 10.0 mi WNW 16.1 mph 19.6 mph N/A   Scattered Clouds
6:35 AM -5.4 °F -27.0 °F -16.8 °F 58% 30.10 in 10.0 mi WNW 16.1 mph - N/A   Clear
6:55 AM -6.3 °F -29.5 °F -17.1 °F 60% 30.12 in 10.0 mi WNW 18.4 mph 21.9 mph N/A   Clear
7:10 AM -6.7 °F -25.5 °F -17.7 °F 59% 30.13 in 10.0 mi WNW 11.5 mph - N/A   Clear
7:35 AM -7.1 °F -26.8 °F -17.3 °F 61% 30.15 in 10.0 mi WNW 12.7 mph - N/A   Clear
7:55 AM -6.9 °F -28.2 °F -17.9 °F 59% 30.16 in 10.0 mi WNW 15.0 mph 19.6 mph N/A   Clear
8:15 AM -6.7 °F -27.9 °F -18.4 °F 57% 30.17 in 10.0 mi WNW 15.0 mph 20.7 mph N/A   Clear
8:35 AM -6.5 °F -27.7 °F -19.3 °F 54% 30.18 in 10.0 mi WNW 15.0 mph 21.9 mph N/A   Clear
8:55 AM -6.3 °F -30.6 °F -19.3 °F 54% 30.19 in 10.0 mi WNW 20.7 mph 25.3 mph N/A   Scattered Clouds
9:15 AM -6.5 °F -29.1 °F -18.8 °F 55% 30.20 in 5.0 mi WNW 17.3 mph 25.3 mph N/A   Mostly Cloudy
9:35 AM -6.7 °F -27.9 °F -18.0 °F 58% 30.21 in 4.0 mi NW 15.0 mph 23.0 mph N/A   Overcast
9:55 AM -6.5 °F -29.1 °F -18.6 °F 56% 30.21 in 5.0 mi WNW 17.3 mph 21.9 mph N/A   Overcast
10:15 AM -6.2 °F -29.2 °F -19.7 °F 52% 30.21 in 5.0 mi NW 18.4 mph 23.0 mph N/A   Mostly Cloudy
10:35 AM -5.8 °F -26.8 °F -20.6 °F 49% 30.22 in 10.0 mi NW 15.0 mph - N/A   Scattered Clouds
10:55 AM -5.1 °F -25.9 °F -20.9 °F 47% 30.23 in 7.0 mi NW 15.0 mph 26.5 mph N/A   Clear
11:15 AM -4.5 °F -22.8 °F -20.6 °F 46% 30.24 in 10.0 mi WNW 11.5 mph 18.4 mph N/A   Clear
11:35 AM -4.2 °F -24.0 °F -21.1 °F 44% 30.24 in 10.0 mi WNW 13.8 mph - N/A   Clear
11:55 AM -3.8 °F -25.6 °F -20.6 °F 45% 30.24 in 10.0 mi WNW 17.3 mph 21.9 mph N/A   Clear
12:15 PM -3.5 °F -25.1 °F -20.0 °F 45% 30.24 in 10.0 mi WNW 17.3 mph 23.0 mph N/A   Clear
12:35 PM -3.3 °F -24.9 °F -20.6 °F 44% 30.24 in 10.0 mi WNW 17.3 mph - N/A   Clear
12:55 PM -3.1 °F -24.0 °F -21.5 °F 41% 30.24 in 10.0 mi WNW 16.1 mph - N/A   Clear
1:15 PM -2.7 °F -22.9 °F -20.7 °F 42% 30.24 in 10.0 mi WNW 15.0 mph - N/A   Clear
1:35 PM -2.4 °F -22.4 °F -20.7 °F 41% 30.24 in 10.0 mi WNW 15.0 mph 23.0 mph N/A   Clear
1:55 PM -1.8 °F -21.7 °F -20.2 °F 42% 30.25 in 10.0 mi WNW 15.0 mph - N/A   Clear
2:15 PM -1.8 °F -20.2 °F -21.3 °F 39% 30.25 in 10.0 mi NW 12.7 mph - N/A   Clear
2:35 PM -1.7 °F -23.4 °F -20.9 °F 40% 30.26 in 10.0 mi WNW 18.4 mph 21.9 mph N/A   Clear
2:55 PM -1.7 °F -20.8 °F -20.6 °F 40% 30.26 in 10.0 mi WNW 13.8 mph - N/A   Clear
3:15 PM -2.2 °F -22.2 °F -20.7 °F 41% 30.27 in 10.0 mi WNW 15.0 mph 21.9 mph N/A   Clear
3:35 PM -1.8 °F -22.4 °F -20.6 °F 41% 30.28 in 10.0 mi WNW 16.1 mph - N/A   Clear
3:55 PM -2.2 °F -21.5 °F -20.6 °F 41% 30.28 in 10.0 mi WNW 13.8 mph 19.6 mph N/A   Clear
4:15 PM -2.7 °F -21.4 °F -20.2 °F 43% 30.29 in 10.0 mi West 12.7 mph 19.6 mph N/A   Clear
4:35 PM -3.3 °F -21.2 °F -20.4 °F 44% 30.29 in 10.0 mi West 11.5 mph 19.6 mph N/A   Clear
4:55 PM -4.4 °F -20.6 °F -20.4 °F 46% 30.31 in 10.0 mi West 9.2 mph - N/A   Clear
5:15 PM -4.9 °F -21.3 °F -20.6 °F 47% 30.31 in 10.0 mi West 9.2 mph - N/A   Clear
5:35 PM -5.4 °F -21.9 °F -21.1 °F 47% 30.32 in 10.0 mi West 9.2 mph - N/A   Clear
5:55 PM -5.8 °F -23.4 °F -21.1 °F 48% 30.32 in 10.0 mi West 10.4 mph 16.1 mph N/A   Clear
6:15 PM -5.4 °F -23.0 °F -20.9 °F 47% 30.32 in 10.0 mi West 10.4 mph 16.1 mph N/A   Clear
6:35 PM -5.8 °F -23.4 °F -20.7 °F 49% 30.32 in 10.0 mi West 10.4 mph - N/A   Clear
6:55 PM -6.2 °F -23.9 °F -20.7 °F 49% 30.33 in 10.0 mi West 10.4 mph - N/A   Clear
7:15 PM -6.5 °F -25.3 °F -20.6 °F 51% 30.33 in 10.0 mi West 11.5 mph - N/A   Clear
7:35 PM -6.7 °F -24.5 °F -20.6 °F 51% 30.34 in 10.0 mi West 10.4 mph - N/A   Clear
7:55 PM -6.9 °F -23.7 °F -20.6 °F 52% 30.34 in 10.0 mi WNW 9.2 mph - N/A   Clear
8:15 PM -7.4 °F -23.2 °F -20.7 °F 52% 30.34 in 10.0 mi West 8.1 mph - N/A   Clear
8:35 PM -7.2 °F -23.0 °F -20.6 °F 52% 30.35 in 10.0 mi West 8.1 mph - N/A   Clear
8:55 PM -7.4 °F -20.4 °F -20.6 °F 53% 30.35 in 10.0 mi West 5.8 mph - N/A   Clear
9:15 PM -7.8 °F -20.8 °F -20.4 °F 54% 30.35 in 10.0 mi West 5.8 mph - N/A   Clear
9:35 PM -8.0 °F -19.2 °F -20.4 °F 55% 30.36 in 10.0 mi West 4.6 mph - N/A   Clear
9:55 PM -7.8 °F -24.8 °F -20.2 °F 55% 30.36 in 10.0 mi West 9.2 mph - N/A   Clear
10:15 PM -8.1 °F -25.3 °F -20.0 °F 56% 30.36 in 10.0 mi West 9.2 mph - N/A   Clear
10:35 PM -8.5 °F -25.7 °F -20.0 °F 57% 30.36 in 10.0 mi West 9.2 mph - N/A   Clear
10:55 PM -8.9 °F -27.2 °F -19.8 °F 59% 30.35 in 10.0 mi West 10.4 mph - N/A   Clear
11:15 PM -8.9 °F -25.0 °F -19.7 °F 59% 30.35 in 10.0 mi West 8.1 mph - N/A   Clear
11:35 PM -8.9 °F -26.2 °F -19.7 °F 59% 30.36 in 10.0 mi WSW 9.2 mph - N/A   Clear
11:55 PM -9.4 °F -25.6 °F -19.8 °F 60% 30.36 in 10.0 mi West 8.1 mph - N/A   Clear